Zurück zum Katalog

EXPRESS AMU-7

AktivKommunikationGEO
NORAD 50001·PAYLOAD·🇷🇺 Russia

Gestartet Dec 13, 2021 von Baikonur Cosmodrome

Loading…

TLE

AktuellSource: Space-Track

Epoche: Sep 14, 2026, 11:38 UTC

1 50001U 21123A   26257.48517015 -.00000251  00000-0  00000-0 0  9997
2 50001   0.0293 256.3843 0000046 113.7253 303.0266  1.00271838 17430

Verfolge EXPRESS AMU-7 in Echtzeit mit AllMySat

Download on the App Store